,,Stat6,,Stat2,,Stat8,,Stat9,,Stat10,,Wind1,,Wind1,
time,status,PA1M_AVG,status,PR1M_SUM,status,RH1M_AVG,status,SR1M_AVG,status,TA1M_AVG,status,W1dAve1m,status,W1sAve1m,
2004-08-21, 00:00:01,VALID,917.557,VALID,0,VALID,99.9512,VALID,0.0169808,VALID,19.2833,VALID,132,VALID,0.421494,
2004-08-21, 00:01:01,VALID,917.537,VALID,0,VALID,99.9606,VALID,0,VALID,19.2127,VALID,127,VALID,0.447621,
2004-08-21, 00:02:01,VALID,917.539,VALID,0,VALID,99.8337,VALID,0,VALID,19.1608,VALID,125,VALID,0.501488,
2004-08-21, 00:03:01,VALID,917.542,VALID,0,VALID,99.573,VALID,0.0169808,VALID,19.0707,VALID,123,VALID,0.393999,
2004-08-21, 00:04:01,VALID,917.537,VALID,0,VALID,99.4153,VALID,0,VALID,18.9999,VALID,123,VALID,0.328497,
2004-08-21, 00:05:01,VALID,917.549,VALID,0,VALID,99.3466,VALID,0,VALID,18.9416,VALID,123,VALID,0.322316,
2004-08-21, 00:06:01,VALID,917.53,VALID,0,VALID,99.428,VALID,0.0169808,VALID,18.9125,VALID,123,VALID,0.368712,
2004-08-21, 00:07:01,VALID,917.519,VALID,0,VALID,99.6035,VALID,0,VALID,18.9187,VALID,123,VALID,0.365972,
2004-08-21, 00:08:01,VALID,917.491,VALID,0,VALID,99.6417,VALID,0,VALID,18.9254,VALID,123,VALID,0.393483,
2004-08-21, 00:09:01,VALID,917.477,VALID,0,VALID,99.8311,VALID,0.0169808,VALID,18.945,VALID,123,VALID,0.256055,
2004-08-21, 00:10:00,VALID,917.47,VALID,0,VALID,99.9776,VALID,0.0169808,VALID,18.987,VALID,123,VALID,0.0188301,
2004-08-21, 00:11:00,VALID,917.455,VALID,0,VALID,100,VALID,0.0169808,VALID,19.0411,VALID,123,VALID,0,
2004-08-21, 00:12:00,VALID,917.463,VALID,0,VALID,100,VALID,0.0169808,VALID,19.0776,VALID,123,VALID,0,
2004-08-21, 00:13:00,VALID,917.46,VALID,0,VALID,100,VALID,0.0169808,VALID,19.0908,VALID,123,VALID,0,
2004-08-21, 00:14:00,VALID,917.455,VALID,0,VALID,100,VALID,0,VALID,19.0997,VALID,123,VALID,0,
2004-08-21, 00:15:00,VALID,917.452,VALID,0,VALID,100,VALID,0.0169808,VALID,19.1221,VALID,123,VALID,0,
2004-08-21, 00:16:00,VALID,917.456,VALID,0,VALID,100,VALID,0.0339617,VALID,19.171,VALID,123,VALID,0,
2004-08-21, 00:17:00,VALID,917.458,VALID,0,VALID,100,VALID,0.0169808,VALID,19.2164,VALID,123,VALID,0,
2004-08-21, 00:18:00,VALID,917.45,VALID,0,VALID,100,VALID,0.0339617,VALID,19.2482,VALID,123,VALID,0,
2004-08-21, 00:19:00,VALID,917.425,VALID,0,VALID,100,VALID,0,VALID,19.2736,VALID,123,VALID,0,
2004-08-21, 00:20:00,VALID,917.433,VALID,0,VALID,100,VALID,0.0339617,VALID,19.28,VALID,123,VALID,0,
2004-08-21, 00:21:00,VALID,917.436,VALID,0,VALID,100,VALID,0.0339617,VALID,19.2743,VALID,123,VALID,0,
2004-08-21, 00:22:00,VALID,917.454,VALID,0,VALID,100,VALID,0.0339617,VALID,19.3098,VALID,123,VALID,0,
2004-08-21, 00:23:00,VALID,917.465,VALID,0,VALID,100,VALID,0.0169808,VALID,19.3582,VALID,123,VALID,0.0842753,
2004-08-21, 00:24:00,VALID,917.477,VALID,0,VALID,100,VALID,-0.0509425,VALID,19.3913,VALID,166,VALID,0.479789,
2004-08-21, 00:25:00,VALID,917.487,VALID,0,VALID,100,VALID,-0.101885,VALID,19.4402,VALID,262,VALID,0.497222,
2004-08-21, 00:26:00,VALID,917.489,VALID,0,VALID,100,VALID,-0.0679233,VALID,19.5308,VALID,262,VALID,0.175967,
2004-08-21, 00:27:00,VALID,917.483,VALID,0,VALID,99.9641,VALID,-0.0509425,VALID,19.499,VALID,262,VALID,0.21218,
2004-08-21, 00:28:00,VALID,917.471,VALID,0,VALID,100,VALID,-0.0679233,VALID,19.5601,VALID,262,VALID,0.222384,
2004-08-21, 00:29:00,VALID,917.457,VALID,0,VALID,99.94,VALID,-0.101885,VALID,19.5311,VALID,262,VALID,0.120384,
2004-08-21, 00:30:00,VALID,917.464,VALID,0,VALID,99.9763,VALID,-0.101885,VALID,19.5502,VALID,262,VALID,0.255526,
2004-08-21, 00:31:00,VALID,917.458,VALID,0,VALID,99.9018,VALID,-0.0849042,VALID,19.547,VALID,262,VALID,0.0926339,
2004-08-21, 00:32:00,VALID,917.447,VALID,0,VALID,99.5183,VALID,-0.0509425,VALID,19.4496,VALID,262,VALID,0.154687,
2004-08-21, 00:33:00,VALID,917.449,VALID,0,VALID,99.7052,VALID,-0.0849042,VALID,19.4526,VALID,262,VALID,0.0356105,
2004-08-21, 00:34:00,VALID,917.445,VALID,0,VALID,99.8197,VALID,-0.0679233,VALID,19.4792,VALID,262,VALID,0,
2004-08-21, 00:35:00,VALID,917.442,VALID,0,VALID,99.8616,VALID,-0.101885,VALID,19.4918,VALID,262,VALID,0,
2004-08-21, 00:36:00,VALID,917.419,VALID,0,VALID,99.8197,VALID,-0.101885,VALID,19.4953,VALID,262,VALID,0,
2004-08-21, 00:37:00,VALID,917.403,VALID,0,VALID,99.8756,VALID,-0.101885,VALID,19.5211,VALID,262,VALID,0,
2004-08-21, 00:38:00,VALID,917.389,VALID,0,VALID,99.9303,VALID,-0.101885,VALID,19.5636,VALID,261,VALID,0.0520198,
2004-08-21, 00:39:00,VALID,917.374,VALID,0,VALID,99.8502,VALID,-0.0339617,VALID,19.5718,VALID,261,VALID,0.0443359,
2004-08-21, 00:40:00,VALID,917.36,VALID,0,VALID,99.5196,VALID,0,VALID,19.5462,VALID,261,VALID,0.111049,
2004-08-21, 00:41:00,VALID,917.341,VALID,0,VALID,99.5908,VALID,0.0169808,VALID,19.4976,VALID,261,VALID,0.285429,
2004-08-21, 00:42:00,VALID,917.333,VALID,0,VALID,99.8286,VALID,0.0339617,VALID,19.4936,VALID,261,VALID,0.501817,
2004-08-21, 00:43:00,VALID,917.329,VALID,0,VALID,98.9194,VALID,0.0169808,VALID,19.397,VALID,261,VALID,0.745313,
2004-08-21, 00:44:00,VALID,917.331,VALID,0,VALID,99.0796,VALID,0,VALID,19.2554,VALID,106,VALID,0.854514,
2004-08-21, 00:45:00,VALID,917.346,VALID,0,VALID,99.6719,VALID,0,VALID,19.245,VALID,76,VALID,0.972266,
2004-08-21, 00:46:00,VALID,917.372,VALID,0,VALID,100,VALID,0,VALID,19.3289,VALID,73,VALID,0.979288,
2004-08-21, 00:47:00,VALID,917.395,VALID,0,VALID,100,VALID,0,VALID,19.3716,VALID,76,VALID,1.07227,
2004-08-21, 00:48:00,VALID,917.412,VALID,0,VALID,100,VALID,0.0169808,VALID,19.3843,VALID,89,VALID,1.10099,
2004-08-21, 00:49:00,VALID,917.443,VALID,0,VALID,100,VALID,0,VALID,19.4166,VALID,94,VALID,1.27362,
2004-08-21, 00:50:00,VALID,917.469,VALID,0,VALID,99.998,VALID,0,VALID,19.4303,VALID,93,VALID,1.24092,
2004-08-21, 00:51:00,VALID,917.51,VALID,0,VALID,99.8159,VALID,-0.0169808,VALID,19.4005,VALID,89,VALID,1.20391,
2004-08-21, 00:52:00,VALID,917.55,VALID,0,VALID,99.6951,VALID,0,VALID,19.3875,VALID,87,VALID,0.948661,
2004-08-21, 00:53:00,VALID,917.548,VALID,0,VALID,99.5132,VALID,0,VALID,19.3649,VALID,83,VALID,0.985465,
2004-08-21, 00:54:00,VALID,917.551,VALID,0,VALID,99.3416,VALID,0,VALID,19.3327,VALID,88,VALID,0.932106,
2004-08-21, 00:55:00,VALID,917.538,VALID,0,VALID,99.4433,VALID,0,VALID,19.3264,VALID,101,VALID,0.816034,
2004-08-21, 00:56:00,VALID,917.53,VALID,0,VALID,99.4115,VALID,0,VALID,19.3133,VALID,112,VALID,0.902798,
2004-08-21, 00:57:00,VALID,917.525,VALID,0,VALID,99.3047,VALID,0,VALID,19.2875,VALID,127,VALID,0.906605,
2004-08-21, 00:58:00,VALID,917.523,VALID,0,VALID,99.4751,VALID,-0.0339617,VALID,19.2586,VALID,128,VALID,1.12705,
2004-08-21, 00:59:00,VALID,917.51,VALID,0,VALID,99.4598,VALID,0.0169808,VALID,19.2199,VALID,132,VALID,1.01395,
2004-08-21, 01:00:00,VALID,917.506,VALID,0,VALID,99.5679,VALID,-0.0169808,VALID,19.1849,VALID,127,VALID,1.31086,
2004-08-21, 01:01:00,VALID,917.505,VALID,0,VALID,99.7993,VALID,0,VALID,19.1618,VALID,128,VALID,1.34271,
2004-08-21, 01:02:00,VALID,917.506,VALID,0,VALID,99.9639,VALID,-0.0169808,VALID,19.1424,VALID,127,VALID,1.39788,
2004-08-21, 01:03:00,VALID,917.51,VALID,0,VALID,100,VALID,0.0169808,VALID,19.1491,VALID,130,VALID,1.42485,
2004-08-21, 01:04:00,VALID,917.493,VALID,0,VALID,100,VALID,0,VALID,19.1357,VALID,129,VALID,1.29742,
2004-08-21, 01:05:00,VALID,917.482,VALID,0,VALID,100,VALID,0,VALID,19.1516,VALID,137,VALID,1.44587,
2004-08-21, 01:06:00,VALID,917.45,VALID,0,VALID,100,VALID,0.0169808,VALID,19.1812,VALID,141,VALID,1.23397,
2004-08-21, 01:07:00,VALID,917.432,VALID,0,VALID,100,VALID,-0.0169808,VALID,19.1742,VALID,144,VALID,1.4084,
2004-08-21, 01:08:00,VALID,917.408,VALID,0,VALID,100,VALID,0,VALID,19.2003,VALID,148,VALID,1.22983,
2004-08-21, 01:09:00,VALID,917.385,VALID,0,VALID,100,VALID,0.0339617,VALID,19.1966,VALID,150,VALID,1.09242,
2004-08-21, 01:10:00,VALID,917.359,VALID,0,VALID,100,VALID,-0.0169808,VALID,19.1879,VALID,141,VALID,0.689918,
2004-08-21, 01:11:00,VALID,917.35,VALID,0,VALID,100,VALID,-0.0169808,VALID,19.1653,VALID,129,VALID,0.810902,
2004-08-21, 01:12:00,VALID,917.33,VALID,0,VALID,100,VALID,-0.0169808,VALID,19.1394,VALID,129,VALID,0.747159,
2004-08-21, 01:13:00,VALID,917.325,VALID,0,VALID,100,VALID,-0.0169808,VALID,19.136,VALID,129,VALID,0.779615,
2004-08-21, 01:14:00,VALID,917.312,VALID,0,VALID,100,VALID,0,VALID,19.1394,VALID,123,VALID,0.528906,
2004-08-21, 01:15:00,VALID,917.291,VALID,0,VALID,100,VALID,-0.0339617,VALID,19.0103,VALID,101,VALID,0.521307,
2004-08-21, 01:16:00,VALID,917.253,VALID,0,VALID,100,VALID,-0.0339617,VALID,18.8839,VALID,74,VALID,0.642078,
2004-08-21, 01:17:00,VALID,917.207,VALID,0,VALID,100,VALID,0.0169808,VALID,18.8161,VALID,71,VALID,0.556996,
2004-08-21, 01:18:00,VALID,917.177,VALID,0,VALID,100,VALID,-0.0169808,VALID,18.8035,VALID,63,VALID,0.566051,
2004-08-21, 01:19:00,VALID,917.159,VALID,0,VALID,100,VALID,0,VALID,18.8002,VALID,63,VALID,0.323038,
2004-08-21, 01:20:00,VALID,917.146,VALID,0,VALID,100,VALID,-0.0169808,VALID,18.8231,VALID,63,VALID,0.33631,
2004-08-21, 01:21:00,VALID,917.132,VALID,0,VALID,100,VALID,0,VALID,18.8099,VALID,63,VALID,0.139535,
2004-08-21, 01:22:00,VALID,917.125,VALID,0,VALID,100,VALID,-0.0339617,VALID,18.8099,VALID,63,VALID,0,
2004-08-21, 01:23:00,VALID,917.093,VALID,0,VALID,100,VALID,0,VALID,18.8039,VALID,63,VALID,0.0010016,
2004-08-21, 01:24:00,VALID,917.071,VALID,0,VALID,100,VALID,-0.0169808,VALID,18.7518,VALID,63,VALID,0.190234,
2004-08-21, 01:25:00,VALID,917.073,VALID,0,VALID,100,VALID,0,VALID,18.6902,VALID,63,VALID,0.423147,
2004-08-21, 01:26:00,VALID,917.063,VALID,0,VALID,100,VALID,-0.0169808,VALID,18.6644,VALID,79,VALID,0.394077,
2004-08-21, 01:27:00,VALID,917.064,VALID,0,VALID,100,VALID,-0.0339617,VALID,18.6614,VALID,92,VALID,0.126715,
2004-08-21, 01:28:00,VALID,917.062,VALID,0,VALID,100,VALID,0,VALID,18.6806,VALID,92,VALID,0.0014881,
2004-08-21, 01:29:00,VALID,917.042,VALID,0,VALID,100,VALID,-0.0169808,VALID,18.6907,VALID,92,VALID,0,
2004-08-21, 01:30:00,VALID,917.045,VALID,0,VALID,100,VALID,-0.0169808,VALID,18.7004,VALID,92,VALID,0,
2004-08-21, 01:31:00,VALID,917.036,VALID,0,VALID,100,VALID,0,VALID,18.7103,VALID,67,VALID,0,
2004-08-21, 01:32:00,VALID,917.028,VALID,0,VALID,100,VALID,-0.0169808,VALID,18.7135,VALID,45,VALID,0,
2004-08-21, 01:33:00,VALID,917.023,VALID,0,VALID,100,VALID,0,VALID,18.7163,VALID,45,VALID,0.0336538,
2004-08-21, 01:34:00,VALID,917.008,VALID,0,VALID,100,VALID,-0.0339617,VALID,18.7036,VALID,45,VALID,0,
2004-08-21, 01:35:00,VALID,917.023,VALID,0,VALID,100,VALID,-0.0339617,VALID,18.678,VALID,45,VALID,0,
2004-08-21, 01:36:00,VALID,917.023,VALID,0,VALID,100,VALID,0,VALID,18.6324,VALID,45,VALID,0.131324,
2004-08-21, 01:37:00,VALID,917.039,VALID,0,VALID,99.9705,VALID,-0.0339617,VALID,18.5102,VALID,45,VALID,0.370276,
2004-08-21, 01:38:00,VALID,917.026,VALID,0,VALID,99.9354,VALID,-0.0339617,VALID,18.4166,VALID,45,VALID,0.277876,
2004-08-21, 01:39:00,VALID,917.004,VALID,0,VALID,99.8235,VALID,-0.0169808,VALID,18.329,VALID,45,VALID,0.336846,
2004-08-21, 01:40:00,VALID,916.983,VALID,0,VALID,99.9232,VALID,0,VALID,18.3105,VALID,45,VALID,0.175249,
2004-08-21, 01:41:00,VALID,916.973,VALID,0,VALID,100,VALID,0,VALID,18.3679,VALID,45,VALID,0,
2004-08-21, 01:42:00,VALID,916.969,VALID,0,VALID,100,VALID,-0.0339617,VALID,18.3808,VALID,45,VALID,0.00109012,
2004-08-21, 01:43:00,VALID,916.953,VALID,0,VALID,100,VALID,0,VALID,18.4074,VALID,45,VALID,0,
2004-08-21, 01:44:00,VALID,916.946,VALID,0,VALID,100,VALID,-0.0339617,VALID,18.423,VALID,45,VALID,0,
2004-08-21, 01:45:00,VALID,916.949,VALID,0,VALID,100,VALID,-0.0509425,VALID,18.4004,VALID,45,VALID,0,
2004-08-21, 01:46:00,VALID,916.941,VALID,0,VALID,100,VALID,-0.0679233,VALID,18.4106,VALID,45,VALID,0,
2004-08-21, 01:47:00,VALID,916.926,VALID,0,VALID,100,VALID,-0.0679233,VALID,18.4498,VALID,45,VALID,0,
2004-08-21, 01:48:00,VALID,916.895,VALID,0,VALID,100,VALID,-0.0169808,VALID,18.4426,VALID,45,VALID,0.176639,
2004-08-21, 01:49:00,VALID,916.895,VALID,0,VALID,99.6923,VALID,-0.0339617,VALID,18.2559,VALID,37,VALID,0.926962,
2004-08-21, 01:50:00,VALID,916.872,VALID,0,VALID,99.5603,VALID,-0.0169808,VALID,18.1233,VALID,39,VALID,0.787946,
2004-08-21, 01:51:00,VALID,916.858,VALID,0,VALID,99.7052,VALID,-0.0679233,VALID,18.0618,VALID,39,VALID,0.681402,
2004-08-21, 01:52:00,VALID,916.838,VALID,0,VALID,99.8484,VALID,0,VALID,18.0325,VALID,39,VALID,0.624628,
2004-08-21, 01:53:00,VALID,916.837,VALID,0,VALID,100,VALID,-0.0169808,VALID,18.0848,VALID,39,VALID,0.420759,
2004-08-21, 01:54:00,VALID,916.806,VALID,0,VALID,100,VALID,-0.0849042,VALID,18.0525,VALID,39,VALID,0.360283,
2004-08-21, 01:55:00,VALID,916.793,VALID,0,VALID,100,VALID,-0.118866,VALID,18.1014,VALID,39,VALID,0.280523,
2004-08-21, 01:56:00,VALID,916.772,VALID,0,VALID,100,VALID,-0.101885,VALID,18.1761,VALID,39,VALID,0.290698,
2004-08-21, 01:57:00,VALID,916.772,VALID,0,VALID,100,VALID,-0.101885,VALID,18.2342,VALID,39,VALID,0.148438,
2004-08-21, 01:58:00,VALID,916.751,VALID,0,VALID,100,VALID,-0.101885,VALID,18.2054,VALID,39,VALID,0.212081,
2004-08-21, 01:59:00,VALID,916.735,VALID,0,VALID,100,VALID,-0.101885,VALID,18.1666,VALID,39,VALID,0.354883,
2004-08-21, 02:00:00,VALID,916.725,VALID,0,VALID,100,VALID,-0.101885,VALID,18.2024,VALID,39,VALID,0.397485,
2004-08-21, 02:01:00,VALID,916.716,VALID,0,VALID,100,VALID,-0.118866,VALID,18.2185,VALID,85,VALID,0.546701,
2004-08-21, 02:02:00,VALID,916.724,VALID,0,VALID,100,VALID,-0.101885,VALID,18.2024,VALID,129,VALID,0.63548,
2004-08-21, 02:03:00,VALID,916.732,VALID,0,VALID,100,VALID,-0.101885,VALID,18.1604,VALID,134,VALID,0.345796,
2004-08-21, 02:04:00,VALID,916.743,VALID,0,VALID,100,VALID,-0.118866,VALID,18.1288,VALID,134,VALID,0.243331,
2004-08-21, 02:05:00,VALID,916.746,VALID,0,VALID,100,VALID,-0.118866,VALID,18.0728,VALID,131,VALID,0.463118,
2004-08-21, 02:06:00,VALID,916.741,VALID,0,VALID,100,VALID,-0.118866,VALID,18.0767,VALID,131,VALID,0.46014,
2004-08-21, 02:07:00,VALID,916.742,VALID,0,VALID,100,VALID,-0.118866,VALID,18.0961,VALID,131,VALID,0.535247,
2004-08-21, 02:08:00,VALID,916.733,VALID,0,VALID,100,VALID,-0.101885,VALID,18.1185,VALID,131,VALID,0.459449,
2004-08-21, 02:09:00,VALID,916.721,VALID,0,VALID,100,VALID,-0.0509425,VALID,18.1436,VALID,131,VALID,0.232422,
2004-08-21, 02:10:00,VALID,916.719,VALID,0,VALID,99.9639,VALID,0,VALID,17.9873,VALID,121,VALID,0.408736,
2004-08-21, 02:11:00,VALID,916.701,VALID,0,VALID,100,VALID,0,VALID,17.9684,VALID,119,VALID,0.130394,
2004-08-21, 02:12:00,VALID,916.689,VALID,0,VALID,100,VALID,0,VALID,18.0104,VALID,119,VALID,0.193105,
2004-08-21, 02:13:00,VALID,916.66,VALID,0,VALID,100,VALID,0,VALID,17.9977,VALID,119,VALID,0.145833,
2004-08-21, 02:14:00,VALID,916.645,VALID,0,VALID,100,VALID,-0.0169808,VALID,18.0461,VALID,119,VALID,0.335751,
2004-08-21, 02:15:00,VALID,916.638,VALID,0,VALID,100,VALID,-0.0509425,VALID,18.0369,VALID,119,VALID,0.345052,
2004-08-21, 02:16:00,VALID,916.614,VALID,0,VALID,100,VALID,-0.0339617,VALID,18.0043,VALID,119,VALID,0.347266,
2004-08-21, 02:17:00,VALID,916.613,VALID,0,VALID,100,VALID,0,VALID,18.0302,VALID,119,VALID,0.441406,
2004-08-21, 02:18:00,VALID,916.6,VALID,0,VALID,100,VALID,0,VALID,18.0689,VALID,102,VALID,0.575648,
2004-08-21, 02:19:00,VALID,916.59,VALID,0,VALID,100,VALID,0,VALID,18.172,VALID,101,VALID,0.592115,
2004-08-21, 02:20:00,VALID,916.601,VALID,0,VALID,100,VALID,0,VALID,18.1429,VALID,101,VALID,0.535442,
2004-08-21, 02:21:00,VALID,916.57,VALID,0,VALID,100,VALID,0,VALID,18.1143,VALID,101,VALID,0.584695,
2004-08-21, 02:22:00,VALID,916.553,VALID,0,VALID,100,VALID,0,VALID,18.1141,VALID,104,VALID,0.550195,
2004-08-21, 02:23:00,VALID,916.529,VALID,0,VALID,100,VALID,-0.0509425,VALID,18.0558,VALID,110,VALID,0.716619,
2004-08-21, 02:24:00,VALID,916.507,VALID,0,VALID,100,VALID,-0.0169808,VALID,18.053,VALID,119,VALID,0.635538,
2004-08-21, 02:25:00,VALID,916.495,VALID,0,VALID,100,VALID,-0.0339617,VALID,18.0786,VALID,141,VALID,0.624467,
2004-08-21, 02:26:00,VALID,916.474,VALID,0,VALID,100,VALID,-0.0339617,VALID,18.1337,VALID,143,VALID,0.679142,
2004-08-21, 02:27:00,VALID,916.468,VALID,0,VALID,100,VALID,0,VALID,18.2008,VALID,148,VALID,0.684095,
2004-08-21, 02:28:00,VALID,916.461,VALID,0,VALID,100,VALID,0,VALID,18.2591,VALID,146,VALID,0.795759,
2004-08-21, 02:29:00,VALID,916.47,VALID,0,VALID,100,VALID,-0.0169808,VALID,18.2849,VALID,148,VALID,0.645712,
2004-08-21, 02:30:00,VALID,916.467,VALID,0,VALID,100,VALID,0,VALID,18.2787,VALID,134,VALID,0.763867,
2004-08-21, 02:31:00,VALID,916.461,VALID,0,VALID,100,VALID,0,VALID,18.2692,VALID,138,VALID,0.596354,
2004-08-21, 02:32:00,VALID,916.47,VALID,0,VALID,100,VALID,-0.0169808,VALID,18.2167,VALID,133,VALID,0.759629,
2004-08-21, 02:33:00,VALID,916.47,VALID,0,VALID,100,VALID,0,VALID,18.2139,VALID,143,VALID,0.798651,
2004-08-21, 02:34:00,VALID,916.475,VALID,0,VALID,100,VALID,-0.0169808,VALID,18.2109,VALID,140,VALID,0.854651,
2004-08-21, 02:35:00,VALID,916.484,VALID,0,VALID,100,VALID,0.0169808,VALID,18.2042,VALID,134,VALID,0.917773,
2004-08-21, 02:36:00,VALID,916.484,VALID,0,VALID,100,VALID,-0.0169808,VALID,18.2397,VALID,132,VALID,0.920387,
2004-08-21, 02:37:00,VALID,916.484,VALID,0,VALID,100,VALID,0,VALID,18.2586,VALID,132,VALID,0.793968,
2004-08-21, 02:38:00,VALID,916.461,VALID,0,VALID,100,VALID,0,VALID,18.2713,VALID,132,VALID,0.391927,
2004-08-21, 02:39:00,VALID,916.441,VALID,0,VALID,100,VALID,0,VALID,18.2656,VALID,132,VALID,0.75744,
2004-08-21, 02:40:00,VALID,916.428,VALID,0,VALID,100,VALID,-0.0169808,VALID,18.2884,VALID,132,VALID,0.710574,
2004-08-21, 02:41:00,VALID,916.407,VALID,0,VALID,100,VALID,0.0169808,VALID,18.3006,VALID,132,VALID,0.358758,
2004-08-21, 02:42:00,VALID,916.397,VALID,0,VALID,100,VALID,0,VALID,18.2978,VALID,132,VALID,0.412791,
2004-08-21, 02:43:00,VALID,916.381,VALID,0,VALID,100,VALID,-0.0169808,VALID,18.2981,VALID,132,VALID,0.642442,
2004-08-21, 02:44:00,VALID,916.368,VALID,0,VALID,100,VALID,-0.0169808,VALID,18.2882,VALID,131,VALID,0.776486,
2004-08-21, 02:45:00,VALID,916.348,VALID,0,VALID,100,VALID,-0.0169808,VALID,18.2752,VALID,130,VALID,0.763889,
2004-08-21, 02:46:00,VALID,916.337,VALID,0,VALID,100,VALID,0,VALID,18.2561,VALID,130,VALID,0.745427,
2004-08-21, 02:47:00,VALID,916.333,VALID,0,VALID,100,VALID,-0.0169808,VALID,18.2533,VALID,127,VALID,0.814024,
2004-08-21, 02:48:00,VALID,916.334,VALID,0,VALID,100,VALID,-0.0169808,VALID,18.2494,VALID,127,VALID,1.01217,
2004-08-21, 02:49:00,VALID,916.329,VALID,0,VALID,100,VALID,0.0169808,VALID,18.2847,VALID,130,VALID,1.02975,
2004-08-21, 02:50:00,VALID,916.339,VALID,0,VALID,100,VALID,-0.0169808,VALID,18.3338,VALID,131,VALID,1.05525,
2004-08-21, 02:51:00,VALID,916.337,VALID,0,VALID,100,VALID,-0.0339617,VALID,18.3529,VALID,131,VALID,1.07088,
2004-08-21, 02:52:00,VALID,916.333,VALID,0,VALID,100,VALID,0,VALID,18.343,VALID,131,VALID,1.1002,
2004-08-21, 02:53:00,VALID,916.349,VALID,0,VALID,100,VALID,-0.0169808,VALID,18.3433,VALID,131,VALID,1.04797,
2004-08-21, 02:54:00,VALID,916.347,VALID,0,VALID,100,VALID,0,VALID,18.3629,VALID,131,VALID,0.898983,
2004-08-21, 02:55:00,VALID,916.361,VALID,0,VALID,100,VALID,0,VALID,18.3398,VALID,130,VALID,0.531944,
2004-08-21, 02:56:00,VALID,916.374,VALID,0,VALID,100,VALID,0,VALID,18.3207,VALID,129,VALID,0.793423,
2004-08-21, 02:57:00,VALID,916.391,VALID,0,VALID,100,VALID,-0.0169808,VALID,18.2882,VALID,127,VALID,0.912946,
2004-08-21, 02:58:00,VALID,916.392,VALID,0,VALID,100,VALID,-0.0339617,VALID,18.2656,VALID,137,VALID,0.868253,
2004-08-21, 02:59:00,VALID,916.387,VALID,0,VALID,100,VALID,0,VALID,18.2727,VALID,134,VALID,0.600109,
2004-08-21, 03:00:00,VALID,916.384,VALID,0,VALID,100,VALID,-0.0339617,VALID,18.2529,VALID,140,VALID,0.788876,
2004-08-21, 03:01:00,VALID,916.376,VALID,0,VALID,100,VALID,-0.0169808,VALID,18.266,VALID,139,VALID,0.784157,
2004-08-21, 03:02:00,VALID,916.378,VALID,0,VALID,100,VALID,0,VALID,18.2817,VALID,135,VALID,0.865327,
2004-08-21, 03:03:00,VALID,916.384,VALID,0,VALID,100,VALID,0,VALID,18.2882,VALID,140,VALID,0.781783,
2004-08-21, 03:04:00,VALID,916.397,VALID,0,VALID,100,VALID,0,VALID,18.2912,VALID,133,VALID,0.700893,
2004-08-21, 03:05:00,VALID,916.401,VALID,0,VALID,100,VALID,0,VALID,18.2981,VALID,146,VALID,0.507994,
2004-08-21, 03:06:00,VALID,916.432,VALID,0,VALID,100,VALID,-0.0169808,VALID,18.2946,VALID,164,VALID,0.571289,
2004-08-21, 03:07:00,VALID,916.425,VALID,0,VALID,100,VALID,-0.0169808,VALID,18.2948,VALID,161,VALID,0.461509,
2004-08-21, 03:08:00,VALID,916.425,VALID,0,VALID,100,VALID,-0.0169808,VALID,18.2658,VALID,142,VALID,0.816964,
2004-08-21, 03:09:00,VALID,916.404,VALID,0,VALID,100,VALID,0,VALID,18.2628,VALID,136,VALID,0.846112,
2004-08-21, 03:10:00,VALID,916.407,VALID,0,VALID,100,VALID,0.0169808,VALID,18.2492,VALID,130,VALID,0.847834,
2004-08-21, 03:11:00,VALID,916.409,VALID,0,VALID,100,VALID,0,VALID,18.2981,VALID,133,VALID,0.620276,
2004-08-21, 03:12:00,VALID,916.385,VALID,0,VALID,100,VALID,0,VALID,18.2981,VALID,134,VALID,0.527699,
2004-08-21, 03:13:00,VALID,916.355,VALID,0,VALID,100,VALID,0,VALID,18.2782,VALID,134,VALID,0.798328,
2004-08-21, 03:14:00,VALID,916.329,VALID,0,VALID,100,VALID,-0.0169808,VALID,18.2879,VALID,128,VALID,0.818824,
2004-08-21, 03:15:00,VALID,916.29,VALID,0,VALID,100,VALID,0,VALID,18.3174,VALID,119,VALID,0.97745,
2004-08-21, 03:16:00,VALID,916.268,VALID,0,VALID,100,VALID,0,VALID,18.3944,VALID,106,VALID,0.916853,
2004-08-21, 03:17:00,VALID,916.27,VALID,0,VALID,100,VALID,0,VALID,18.3204,VALID,87,VALID,0.56157,
2004-08-21, 03:18:00,VALID,916.246,VALID,0,VALID,100,VALID,-0.0509425,VALID,18.1014,VALID,81,VALID,0.513445,
2004-08-21, 03:19:00,VALID,916.22,VALID,0,VALID,100,VALID,0,VALID,17.979,VALID,71,VALID,0.651456,
2004-08-21, 03:20:00,VALID,916.201,VALID,0,VALID,100,VALID,-0.0169808,VALID,17.7817,VALID,53,VALID,0.943452,
2004-08-21, 03:21:00,VALID,916.187,VALID,0,VALID,100,VALID,-0.0169808,VALID,17.7199,VALID,54,VALID,0.874023,
2004-08-21, 03:22:00,VALID,916.191,VALID,0,VALID,100,VALID,-0.0169808,VALID,17.7332,VALID,54,VALID,1.02207,
2004-08-21, 03:23:00,VALID,916.181,VALID,0,VALID,100,VALID,-0.0169808,VALID,17.7079,VALID,52,VALID,0.964844,
2004-08-21, 03:24:00,VALID,916.185,VALID,0,VALID,100,VALID,0,VALID,17.7107,VALID,52,VALID,0.678597,
2004-08-21, 03:25:00,VALID,916.172,VALID,0,VALID,100,VALID,-0.0339617,VALID,17.7203,VALID,52,VALID,0.535334,
2004-08-21, 03:26:00,VALID,916.151,VALID,0,VALID,100,VALID,-0.0169808,VALID,17.6493,VALID,52,VALID,0.489931,
2004-08-21, 03:27:00,VALID,916.145,VALID,0,VALID,100,VALID,-0.0509425,VALID,17.5882,VALID,53,VALID,0.379764,
2004-08-21, 03:28:00,VALID,916.133,VALID,0,VALID,100,VALID,-0.0509425,VALID,17.6201,VALID,53,VALID,0.20503,
2004-08-21, 03:29:00,VALID,916.118,VALID,0,VALID,100,VALID,-0.0509425,VALID,17.7143,VALID,53,VALID,0.176599,
2004-08-21, 03:30:00,VALID,916.129,VALID,0,VALID,100,VALID,-0.0169808,VALID,17.7432,VALID,53,VALID,0.19931,
2004-08-21, 03:31:00,VALID,916.135,VALID,0,VALID,100,VALID,-0.0509425,VALID,17.7371,VALID,53,VALID,0.0327744,
2004-08-21, 03:32:00,VALID,916.139,VALID,0,VALID,100,VALID,-0.0339617,VALID,17.7077,VALID,53,VALID,0.228198,
2004-08-21, 03:33:00,VALID,916.142,VALID,0,VALID,100,VALID,-0.0339617,VALID,17.6885,VALID,103,VALID,0.670139,
2004-08-21, 03:34:00,VALID,916.148,VALID,0,VALID,100,VALID,-0.0339617,VALID,17.7176,VALID,128,VALID,0.872461,
2004-08-21, 03:35:00,VALID,916.157,VALID,0,VALID,100,VALID,-0.0169808,VALID,17.7597,VALID,135,VALID,1.09514,
2004-08-21, 03:36:00,VALID,916.159,VALID,0,VALID,100,VALID,-0.0169808,VALID,17.8884,VALID,129,VALID,1.16462,
2004-08-21, 03:37:00,VALID,916.157,VALID,0,VALID,100,VALID,-0.0169808,VALID,17.9723,VALID,125,VALID,1.27455,
2004-08-21, 03:38:00,VALID,916.167,VALID,0,VALID,100,VALID,0,VALID,18.0302,VALID,120,VALID,1.28982,
2004-08-21, 03:39:00,VALID,916.16,VALID,0,VALID,100,VALID,-0.0169808,VALID,18.0915,VALID,121,VALID,1.52587,
2004-08-21, 03:40:00,VALID,916.143,VALID,0,VALID,100,VALID,-0.0169808,VALID,18.1724,VALID,120,VALID,1.70666,
2004-08-21, 03:41:00,VALID,916.133,VALID,0,VALID,100,VALID,-0.0169808,VALID,18.2176,VALID,124,VALID,1.70494,